| time (UTC) | temp C | wind direction | speed KPH | gust KPH | rain 1hr cm | rain 24hr cm | rain mn cm | humidity % | barometer mb |
| 20260505001515 | 5 | 55 | 12.9 | 16.1 | 0.00 | 0.51 | 0.51 | 29 | 1010.5 |
| 20260505000534 | 4 | 52 | 14.5 | 16.1 | 0.00 | 0.51 | 0.51 | 29 | 1009.9 |
| 20260504235515 | 3 | 50 | 14.5 | 16.1 | 0.00 | 0.51 | 0.51 | 28 | 1009.4 |
| 20260504234515 | 3 | 47 | 14.5 | 16.1 | 0.00 | 0.51 | 0.51 | 28 | 1008.9 |
| 20260504233515 | 3 | 44 | 14.5 | 17.7 | 0.00 | 0.51 | 0.51 | 27 | 1008.4 |
| 20260504231515 | 2 | 39 | 14.5 | 17.7 | 0.00 | 0.51 | 0.51 | 27 | 1007.4 |
| 20260504230515 | 2 | 37 | 14.5 | 17.7 | 0.00 | 0.51 | 0.51 | 26 | 1007.0 |
| 20260504225515 | 1 | 35 | 14.5 | 17.7 | 0.00 | 0.51 | 0.51 | 26 | 1006.5 |
| 20260504224515 | 1 | 32 | 14.5 | 17.7 | 0.00 | 0.51 | 0.51 | 25 | 1006.1 |
| 20260504223515 | 1 | 30 | 14.5 | 17.7 | 0.00 | 0.51 | 0.51 | 25 | 1005.7 |
| 20260504222515 | 1 | 28 | 14.5 | 17.7 | 0.00 | 0.51 | 0.51 | 25 | 1005.3 |
| 20260504221515 | 0 | 26 | 14.5 | 17.7 | 0.00 | 0.51 | 0.51 | 24 | 1004.9 |
| 20260504220515 | 0 | 24 | 14.5 | 17.7 | 0.00 | 0.51 | 0.51 | 24 | 1004.5 |
| 20260504215515 | 0 | 22 | 14.5 | 17.7 | 0.00 | 0.51 | 0.51 | 24 | 1004.1 |
| 20260504214515 | 0 | 20 | 14.5 | 17.7 | 0.00 | 0.51 | 0.51 | 23 | 1003.8 |
| 20260504213515 | 0 | 18 | 14.5 | 17.7 | 0.00 | 0.51 | 0.51 | 23 | 1003.4 |
| 20260504212515 | 0 | 17 | 16.1 | 17.7 | 0.00 | 0.51 | 0.51 | 23 | 1003.1 |
| 20260504211515 | 0 | 15 | 16.1 | 19.3 | 0.00 | 0.51 | 0.51 | 23 | 1002.8 |
| 20260504210515 | 0 | 14 | 16.1 | 19.3 | 0.00 | 0.51 | 0.51 | 22 | 1002.5 |
| 20260504205515 | -1 | 12 | 16.1 | 19.3 | 0.00 | 0.51 | 0.51 | 22 | 1002.2 |
| 20260504204515 | -1 | 11 | 16.1 | 19.3 | 0.00 | 0.51 | 0.51 | 22 | 1002.0 |
| 20260504203515 | -1 | 9 | 16.1 | 19.3 | 0.00 | 0.51 | 0.51 | 22 | 1001.7 |
| 20260504202515 | -1 | 8 | 16.1 | 19.3 | 0.00 | 0.51 | 0.51 | 21 | 1001.5 |
| 20260504201534 | -1 | 7 | 16.1 | 19.3 | 0.00 | 0.51 | 0.51 | 21 | 1001.3 |
| 20260504200515 | -1 | 6 | 16.1 | 19.3 | 0.00 | 0.51 | 0.51 | 21 | 1001.1 |
| 20260504195515 | -1 | 5 | 16.1 | 19.3 | 0.00 | 0.51 | 0.51 | 21 | 1000.9 |
| 20260504194515 | -1 | 4 | 16.1 | 19.3 | 0.00 | 0.51 | 0.51 | 21 | 1000.7 |
| 20260504193515 | -1 | 3 | 16.1 | 19.3 | 0.00 | 0.51 | 0.51 | 21 | 1000.6 |
| 20260504192515 | -1 | 3 | 16.1 | 19.3 | 0.00 | 0.51 | 0.51 | 20 | 1000.4 |
| 20260504191515 | -1 | 2 | 16.1 | 19.3 | 0.00 | 0.51 | 0.51 | 20 | 1000.3 |
| 20260504190515 | 0 | 1 | 16.1 | 19.3 | 0.00 | 0.51 | 0.51 | 20 | 1000.2 |
| 20260504190039 | 0 | 1 | 16.1 | 19.3 | 0.00 | 0.51 | 0.51 | 20 | 1000.1 |
| 20260504183015 | 0 | 0 | 16.1 | 19.3 | 0.00 | 0.51 | 0.51 | 20 | 1000.0 |
| 20260504182015 | 0 | 0 | 16.1 | 19.3 | 0.00 | 0.51 | 0.51 | 20 | 1000.0 |
| 20260504181015 | 0 | 0 | 16.1 | 19.3 | 0.00 | 0.51 | 0.51 | 20 | 999.9 |
| 20260504180015 | 0 | 0 | 16.1 | 19.3 | 0.00 | 0.51 | 0.51 | 20 | 999.9 |
| 20260504175015 | 0 | 0 | 16.1 | 19.3 | 0.00 | 0.51 | 0.51 | 20 | 1000.0 |
| 20260504174015 | 1 | 0 | 16.1 | 19.3 | 0.00 | 0.51 | 0.51 | 20 | 1000.0 |
| 20260504173015 | 1 | 1 | 16.1 | 19.3 | 0.00 | 0.51 | 0.51 | 20 | 1000.0 |
| 20260504172015 | 1 | 1 | 16.1 | 19.3 | 0.00 | 0.51 | 0.51 | 20 | 1000.1 |
| 20260504171015 | 2 | 1 | 16.1 | 19.3 | 0.00 | 0.51 | 0.51 | 20 | 1000.2 |
| 20260504151015 | 6 | 13 | 16.1 | 19.3 | 0.00 | 0.51 | 0.51 | 22 | 1002.4 |
| 20260504141034 | 10 | 23 | 14.5 | 17.7 | 0.00 | 0.51 | 0.51 | 24 | 1004.4 |
| 20260504004515 | 6 | 296 | 3.2 | 3.2 | 0.00 | 0.00 | 0.00 | 69 | 1056.3 |
| 20260504003515 | 5 | 299 | 3.2 | 3.2 | 0.00 | 0.00 | 0.00 | 70 | 1056.9 |
| 20260504002515 | 5 | 302 | 3.2 | 3.2 | 0.00 | 0.00 | 0.00 | 70 | 1057.4 |